Location: Waco, TX
(31.5480°N, 97.1670°W)
Time: 16:09:32
(UTC-05:00)

ISS - Pass Details

Date: 18 October 2018
Orbit: 403 x 408 km, 51.6° (Epoch: 17 October)

Event Time Altitude Azimuth Distance (km) Brightness Sun altitude
Rises 09:51:16 0° 227° (SW) 2,307 -0.1 26.4°
Reaches altitude 10° 09:53:20 10° 229° (SW) 1,452 -1.1 26.7°
Maximum altitude 09:56:35 76° 315° (NW) 420 -3.5 27.3°
Drops below altitude 10° 09:59:51 10° 42° (NE) 1,463 -0.8 27.9°
Sets 10:01:57 0° 44° (NE) 2,326 0.1 28.3°
